TIME,DELAY(SENSOR),PRES,OXYGEN,RAWTEMP,T(OPTODE),TCPHASE,FLUOR,BETA(BETA700),BETA(BETA412),BETA(BETA440),CDOM,C(CSC),ED(ED411.90),ED(ED443.80),ED(ED489.40),ED(ED554.70),LU(LU412.20),LU(LU443.80),LU(LU489.40),LU(LU555.00),COMP,TILTX,TILTY,CHECK
1347228167,5804,868.2399902343750000,172.5406036376953000,382.5006103515625000,11.1354904174804690,37.7608299255371100,52,100,97,78,78,13499,2146956187,2147513810,2147281124,2147498605,2147090715,2146928045,2147698340,2147119936,1166,-1,8,9473
1347231763,5806,992.7700195312500000,181.9893951416015600,473.6502075195312500,8.3447332382202150,38.6087188720703100,52,108,99,80,79,13484,2146959634,2147518985,2147292132,2147516242,2147096722,2146924096,2147714925,2147117769,1396,-1,8,35744
1347235363,5806,1007.8099975585938000,193.3769073486328000,488.3800048828125000,7.8895478248596190,38.1130294799804700,52,102,99,79,79,13480,2146959168,2147513289,2147293440,2147517961,2147090075,2146920137,2147720813,2147118564,936,-1,8,45921
1347238963,5805,1013.4000244140625000,192.7536010742187500,488.8111877441406000,7.8762040138244630,38.1596488952636700,52,101,98,78,78,13483,2146955236,2147518829,2147294052,2147513755,2147090258,2146918464,2147716297,2147120384,3370,-1,8,3846
1347242563,5806,1018.9500122070312000,196.0610046386718800,490.5693969726562500,7.8217768669128420,37.9812202453613300,53,104,99,78,78,13481,2146960292,2147516909,2147290953,2147514084,2147091776,2146922020,2147717284,2147120246,220,-1,8,64834
1347246163,5807,1019.5800170898438000,196.5807037353515600,491.6749877929687500,7.7875399589538570,37.9674911499023440,52,104,99,78,78,13476,2146958473,2147515328,2147292772,2147519853,2147095049,2146925074,2147719506,2147119067,3201,-1,8,1006
1347249763,5804,1020.4000244140625000,197.3560028076172000,493.1839904785156000,7.7407989501953125,37.9448509216308600,52,102,101,78,79,13475,2146959286,2147513773,2147296237,2147515648,2147091492,2146923830,2147719972,2147118153,3370,-1,8,63746
1347253363,5805,1022.0800170898438000,197.2781066894531200,495.2130126953125000,7.6779317855834960,37.9843902587890600,52,104,99,79,78,13473,2146960594,2147518848,2147293165,2147520493,2147092480,2146923108,2147720374,2147118226,3485,-1,8,65303
1347256963,5806,1022.9799804687500000,198.2451019287109400,495.3186950683594000,7.6746549606323240,37.9262809753418000,52,103,98,79,78,13474,2146957988,2147520201,2147294171,2147519616,2147092013,2146921545,2147720841,2147119204,3439,-1,8,13759
1347260563,5806,1018.2100219726562000,199.7635955810547000,496.5195007324219000,7.6374330520629880,37.8534393310546900,53,102,99,79,79,13473,2146956617,2147513545,2147293056,2147521033,2147092361,2146922121,2147719140,2147119872,3265,-1,8,31468
1347264163,5803,1020.1599731445312000,199.4057006835937500,497.8356018066406000,7.5966281890869140,37.8981208801269500,53,104,100,80,78,13473,2146960009,2147517147,2147290852,2147518464,2147089682,2146918756,2147722816,2147122532,3462,-1,8,38292
1347267763,5803,1020.0700073242188000,200.6683959960937500,498.2119140625000000,7.5849561691284180,37.8269004821777340,52,105,99,79,79,13473,2146959268,2147521014,2147295168,2147518528,2147091931,2146918994,2147721014,2147120237,3344,-1,8,65442
1347271363,5803,1024.1199951171875000,201.1179046630859400,498.4259948730469000,7.5783190727233890,37.8030204772949200,52,103,100,79,79,13473,2146959149,2147516416,2147291190,2147518409,2147089536,2146919606,2147719533,2147120036,3410,-1,8,8698
1347274963,5810,1027.1099853515625000,200.2053985595703000,497.6849060058594000,7.6012988090515140,37.8463516235351560,53,104,99,80,79,13471,2146958619,2147517110,2147292653,2147520192,2147091008,2146921600,2147721718,2147118710,95,-1,8,32181
1347278563,5807,1027.9000244140625000,200.3408050537109400,497.5869140625000000,7.6043400764465330,37.8360710144043000,53,106,100,80,79,13471,2146957604,2147516745,2147292406,2147517074,2147091785,2146921947,2147722176,2147124132,59,-1,8,18200
1347282163,5805,1030.0699462890625000,200.2933044433593800,496.5347900390625000,7.6369571685791020,37.8209190368652340,53,106,99,80,78,13465,2146957805,2147517001,2147293348,2147521590,2147088731,2146916324,2147716845,2147117705,473,-1,8,43741
1347285763,5806,1027.6600341796875000,199.6696014404297000,495.8906860351562500,7.6569218635559080,37.8476600646972660,53,104,99,79,78,13467,2146955392,2147514925,2147290505,2147519076,2147089956,2146920146,2147717997,2147118683,160,-1,8,32517
1347289363,5804,1029.1700439453125000,200.5706024169922000,497.3060913085937500,7.6130471229553220,37.8169898986816400,52,104,99,79,78,13466,2146959661,2147519625,2147291401,2147518939,2147091328,2146920996,2147720301,2147117632,3150,-1,8,53633
1347292963,5803,1026.0799560546875000,201.1331024169922000,497.8613891601562500,7.5958271026611330,37.7914505004882800,52,107,98,78,79,13467,2146962185,2147517312,2147295488,2147521536,2147092736,2146924105,2147724141,2147117933,3295,-1,8,45413
1347296563,5808,1027.1300048828125000,202.3491973876953000,498.9023132324219000,7.5635428428649900,37.7358703613281250,52,107,99,79,78,13465,2146958336,2147514505,2147293211,2147518985,2147090285,2146920841,2147722953,2147118162,650,-1,8,64414
1347300163,5806,1024.1300048828125000,201.4037933349609400,500.0138854980469000,7.5290617942810060,37.8131294250488300,53,103,99,81,78,13468,2146957933,2147520630,2147297234,2147518354,2147089691,2146919158,2147717778,2147122678,806,-1,8,45871
1347303763,5807,1020.7199707031250000,202.4732055664062500,500.2572937011719000,7.5215110778808590,37.7522010803222660,52,103,98,79,78,13466,2146959552,2147516352,2147295195,2147519049,2147092370,2146927890,2147713673,2147118637,429,-1,8,64045
1347307363,5808,1024.6800537109375000,202.8056030273437500,500.3010864257812500,7.5201539993286130,37.7319793701171900,53,104,99,78,79,13469,2146956352,2147515657,2147292214,2147520640,2147092754,2146923520,2147717760,2147120758,3593,-1,8,20134
1347310963,5804,1021.1199951171875000,202.8399047851562500,501.7745971679687500,7.4744281768798830,37.7559509277343750,53,102,100,79,79,13469,2146960585,2147518390,2147293997,2147521444,2147094290,2146918738,2147719899,2147118966,804,-1,8,33788
1347314563,5808,1026.0500488281250000,203.1752014160156200,500.8421020507812500,7.5033669471740720,37.7190895080566400,52,106,101,77,79,13470,2146958226,2147513984,2147294747,2147519021,2147090514,2146924900,2147722148,2147121042,481,-1,8,24890
1347318163,5805,1023.7399902343750000,203.8303070068359400,501.0816955566406000,7.4959311485290530,37.6841506958007800,53,103,100,79,78,13470,2146958317,2147518336,2147295753,2147518628,2147090861,2146923017,2147720731,2147117348,555,-1,8,16951
1347321763,5806,1030.4399414062500000,203.1846923828125000,500.4742126464844000,7.5147800445556640,37.7123985290527340,52,103,99,80,79,13469,2146958939,2147516187,2147292589,2147517531,2147091126,2146920832,2147718262,2147117010,3570,-1,8,17871
1347325363,5807,1028.8800048828125000,202.9781951904297000,500.4097900390625000,7.5167789459228520,37.7237014770507800,52,105,99,78,78,13463,2146958555,2147517421,2147293430,2147517120,2147092242,2146919625,2147719140,2147118985,169,-1,8,9543
1347328963,5807,1031.9599609375000000,201.8721923828125000,500.3617858886719000,7.5182671546936035,37.7907409667968750,52,107,98,78,79,13471,2146956617,2147517988,2147292498,2147518317,2147088219,2146921051,2147724242,2147122825,224,-1,8,54007
1347332563,5808,1033.7800292968750000,201.4644927978515600,499.2027893066406000,7.5542230606079100,37.7950286865234400,52,106,101,80,78,13464,2146962148,2147515428,2147294253,2147517878,2147091401,2146921645,2147718372,2147121508,3584,-1,8,65175
1347336163,5804,1029.2399902343750000,200.5200042724609400,499.1496887207031000,7.5558710098266600,37.8517494201660160,52,103,99,78,79,13453,2146956854,2147515602,2147292928,2147518427,2147093156,2146923072,2147716681,2147119433,3490,-1,8,14683
1347339763,5808,1031.3599853515625000,201.4140930175781200,499.9396057128906000,7.5313658714294430,37.8110694885253900,52,105,100,80,78,13457,2146958573,2147515894,2147295323,2147519104,2147086198,2146921837,2147718683,2147118948,291,-1,8,637
1347343363,5807,1027.7500000000000000,200.8043975830078000,500.5898132324219000,7.5111942291259770,37.8601417541503900,52,102,101,78,80,13457,2146958098,2147513810,2147296950,2147518217,2147090761,2146914395,2147722843,2147120987,242,0,8,17685
1347346963,5804,1030.3299560546875000,202.7382965087890600,501.3129882812500000,7.4887509346008300,37.7546501159668000,52,104,99,78,78,13463,2146958756,2147520027,2147292260,2147520274,2147087478,2146920000,2147715291,2147119643,3507,-1,8,11117
1347350563,5805,1030.2299804687500000,202.2369995117187500,501.4541015625000000,7.4843750000000000,37.7873382568359400,53,107,98,78,78,13464,2146959963,2147516736,2147292306,2147520283,2147091145,2146924736,2147718372,2147120448,3538,-1,8,44176
1347354163,5808,1028.4200439453125000,202.3302001953125000,501.7685852050781000,7.4746131896972660,37.7868118286132800,52,105,99,78,79,13461,2146957120,2147516818,2147295488,2147520768,2147090468,2146920484,2147717705,2147120256,95,-1,8,9174
1347357763,5809,1030.7900390625000000,203.3871002197265600,501.9277038574219000,7.4696750640869140,37.7255287170410160,52,104,99,79,78,13463,2146960265,2147514898,2147295716,2147518592,2147095149,2146919780,2147720960,2147118299,32,-1,8,24769
1347361363,5807,1029.0300292968750000,203.5372924804687500,501.3948974609375000,7.4862132072448730,37.7073898315429700,53,103,99,79,79,13459,2146956918,2147516626,2147294619,2147521417,2147090358,2146925229,2147719350,2147121115,3254,-1,8,20551
1347364963,5809,1030.0699462890625000,202.7342987060547000,501.6377868652344000,7.4786739349365230,37.7598304748535160,53,104,99,78,78,13459,2146959030,2147515840,2147294829,2147522587,2147092205,2146921892,2147720118,2147118482,75,-1,8,3518
1347368563,5805,1031.1099853515625000,203.7359924316406200,502.1716918945312500,7.4621028900146480,37.7089805603027340,53,101,101,79,78,13459,2146956178,2147515401,2147293339,2147519780,2147090742,2146925257,2147718610,2147117924,3097,-1,8,47497
1347370555,5805,1029.2700195312500000,203.1753997802734400,502.5588073730469000,7.4500870704650880,37.7496109008789060,52,106,100,78,78,13463,2146958052,2147513216,2147293668,2147519817,2147090185,2146919625,2147717915,2147116315,3185,-1,8,16063
